Location: Unspecified
(19.4326°N, 99.1332°W)
Time: 16:35:47
(UTC-05:00)

ISS - Visible Passes

Search period start: 23 April 2017 00:00
Search period end: 03 May 2017 00:00
Orbit: 400 x 409 km, 51.6° (Epoch: 24 April)

Date Brightness Start Highest point End Pass type
(mag) Time Alt. Az. Time Alt. Az. Time Alt. Az.
27 Apr -1.0 06:47:03 10° SSE 06:48:59 15° SE 06:50:53 10° E visible
29 Apr -3.2 06:37:29 10° SSW 06:40:39 53° SE 06:43:49 10° NE visible
30 Apr -1.5 05:46:49 14° SSE 05:48:26 20° SE 05:50:55 10° ENE visible
01 May -3.0 06:29:50 13° WSW 06:32:24 36° NW 06:35:25 10° NNE visible
02 May -3.9 05:40:03 78° SE 05:40:04 78° SE 05:43:18 10° NE visible
